Regional Weather Roundup
Issued by NWS Cleveland, OH

Home | Current Version | Previous Version | Graphics & Text | Print | Product List | Glossary On
Versions: 1 2 3 4 5 6 7 8 9 10 11 12 13 14 15 16 17 18 19 20 21 22 23 24 25 26 27 28 29 30 31 32 33 34 35 36 37 38 39 40 41 42 43 44 45 46 47 48 49 50
024
ASUS41 KCLE 241610
RWRCLE
OHIO REGIONAL WEATHER ROUNDUP
NATIONAL WEATHER SERVICE CLEVELAND, OH
1200 PM EDT TUE MAY 24 2016

NOTE: "FAIR" INDICATES FEW OR NO CLOUDS BELOW 12,000 FEET WITH NO
SIGNIFICANT WEATHER AND/OR OBSTRUCTIONS TO VISIBILITY.

OHZ001>008-015>018-024>027-034-035-043-044-241700-
   NORTHWEST OHIO

CITY           SKY/WX    TMP DP  RH WIND       PRES   REMARKS
DEFIANCE       SUNNY     79  45  29 SW9       30.07S
FINDLAY        SUNNY     78  43  28 SW9       30.08S
TOLEDO EXPRESS SUNNY     79  44  28 W9        30.06F
TOLEDO EXEC    SUNNY     79  46  31 W10       30.07S
LIMA           SUNNY     76  48  37 SW9       30.10S
$$

OHZ009>014-019>023-028>033-038-089-241700-
   NORTHEAST OHIO

CITY           SKY/WX    TMP DP  RH WIND       PRES   REMARKS
CLE-HOPKINS    SUNNY     78  45  30 W14       30.09F
CLE-LAKEFRONT  SUNNY     70  53  54 W9        30.07S
CUY CO. ARPT   SUNNY     77  48  36 W14       30.09S
LORAIN-ELYRIA  SUNNY     76  42  29 W12G18    30.08F
ASHTABULA      SUNNY     76  43  30 NW12G17   30.08S
AKRON-CANTON   SUNNY     76  48  37 NW12      30.10S
WOOSTER        SUNNY     76  49  38 W10       30.11S
MANSFIELD      SUNNY     75  48  38 SW12      30.10F
YOUNGSTOWN     MOSUNNY   75  47  36 W9G21     30.08F
$$

OHZ042-051>053-060>062-070>072-077>081-241700-
  SOUTHWEST OHIO

CITY           SKY/WX    TMP DP  RH WIND       PRES   REMARKS
CINC-COVINGTON MOSUNNY   75  50  41 SW5       30.13S
CINC-LUNKEN    SUNNY     76  54  46 SW6       30.12F
HAMILTON       SUNNY     76  50  40 W6        30.12F
DAYTON         MOSUNNY   74  50  42 S7        30.13S
WRIGHT-PAT AFB SUNNY     75  53  46 VRB2      30.12S
DAYTON GENERAL SUNNY     74  49  41 SW7       30.12S
WILMINGTON     SUNNY     74  53  48 W8        30.13S
$$

OHZ036-037-039>041-045>050-054>059-063>069-073>076-082>088-241700-
  CENTRAL AND SOUTHEAST OHIO

CITY           SKY/WX    TMP DP  RH WIND       PRES   REMARKS
COLUMBUS       MOSUNNY   75  51  43 CALM      30.11S
OSU AIRPORT    SUNNY     76  51  41 VRB6      30.11S
BOLTON FIELD   MOSUNNY   75  54  46 W8        30.13R
RICKENBACK AFB MOSUNNY   75  53  47 SW8       30.11S
NEWARK         MOSUNNY   77  52  41 W10       30.11S
MARION         SUNNY     76  45  33 NW8       30.10S
LANCASTER      SUNNY     75  55  49 SW7       30.13R
ZANESVILLE     SUNNY     77  51  40 VRB7      30.12S
NEW PHILLY     SUNNY     78  47  33 W9        30.10F
$$




USA.gov is the U.S. government's official web portal to all federal, state and local government web resources and services.